GFSNGP_sfc_rhum_000.txt.gz
RH
40 37 36 41 40 36 40 46 62 49 37 33 32 34 37 40 39 39 41 45 46 46 46 43 44 46 48 49 47 50 48 44 49 48 45 44 45 44 43 42 36 34 35 36
60 46 40 49 40 38 41 42 44 43 44 34 34 37 42 43 44 46 50 49 51 54 48 39 39 45 51 43 46 53 48 47 42 43 40 39 40 39 36 34 33 35 36 38
85 60 62 85 52 38 37 40 40 51 38 39 43 46 47 47 48 57 61 58 61 54 37 39 42 53 43 40 46 50 44 40 42 43 37 37 32 30 32 36 39 41 40 42
99 92 92 46 33 34 41 38 32 34 41 46 46 46 41 52 63 79 73 56 45 38 35 38 43 41 40 38 43 44 42 40 42 39 36 32 32 33 36 37 39 40 43 44
100 73 53 42 39 43 45 44 39 47 49 50 46 44 48 70 81 67 63 49 40 35 35 37 42 39 41 41 40 40 41 43 44 38 37 32 33 36 38 39 40 42 44 45
93 99 93 49 39 40 42 57 51 64 76 77 55 84 89 64 72 63 42 37 34 30 33 40 44 40 44 43 42 42 44 49 39 38 36 33 36 39 40 38 40 44 54 55
91 97 70 42 44 44 84 80 68 80 82 82 84 90 78 71 53 35 33 32 31 28 30 36 38 42 48 41 40 36 39 40 40 37 34 35 37 38 40 41 52 76 89 75
96 100 96 43 45 83 65 76 83 80 71 70 71 70 54 40 34 30 32 30 27 30 31 34 37 44 43 35 31 36 40 41 41 37 34 33 39 40 42 47 62 80 90 84
65 67 43 42 52 53 68 79 71 74 63 68 63 46 37 34 31 31 31 28 28 32 38 36 35 42 40 32 37 45 42 42 40 38 38 38 40 46 46 48 70 74 60 64
73 56 49 54 50 59 70 78 76 73 56 50 46 38 35 32 31 34 28 29 33 35 36 41 41 49 43 42 43 41 42 40 40 41 44 43 43 44 43 60 71 58 59 58
76 64 58 51 64 77 74 78 79 54 46 40 34 34 32 31 31 29 30 34 35 38 40 37 38 57 50 48 42 36 39 41 45 50 51 50 45 43 52 59 66 65 61 64
97 70 71 71 72 69 81 68 49 43 38 32 32 34 32 30 30 31 35 39 38 40 43 40 41 45 49 45 48 51 51 49 55 62 60 56 45 46 71 69 68 66 68 74
73 65 64 68 69 59 55 44 39 36 34 36 34 30 31 36 35 44 38 39 42 48 48 48 54 59 49 69 78 82 70 71 63 69 61 58 60 61 64 58 68 69 68 67
69 70 72 60 59 50 47 38 42 37 37 35 32 34 36 37 38 38 42 47 53 53 54 54 54 60 60 61 68 89 79 88 70 64 63 66 70 70 68 71 74 70 63 61
63 61 59 53 49 44 39 39 43 37 33 37 36 40 43 44 44 50 54 61 63 63 53 49 59 60 56 66 64 64 68 67 82 81 79 79 77 73 70 69 67 66 60 55
54 52 48 48 44 41 40 35 36 40 40 38 42 48 48 49 52 60 73 77 90 80 70 91 97 72 68 60 56 54 60 78 78 73 74 72 71 72 68 68 66 68 64 67
65 64 56 50 36 37 38 40 42 43 53 53 62 76 67 77 88 83 80 90 99 97 98 100 95 62 65 58 60 55 61 64 84 68 68 72 74 72 70 71 70 69 69 79
43 39 37 38 40 45 51 53 61 65 67 66 90 92 91 92 92 94 96 100 100 97 98 93 92 69 70 57 66 63 70 76 76 76 73 77 75 73 75 74 69 70 72 70
36 35 40 44 49 58 59 60 69 80 91 94 95 95 94 94 94 97 96 100 100 98 84 96 88 82 65 78 73 67 80 86 78 70 79 79 82 77 76 80 77 76 73 70
38 41 48 53 60 71 81 82 95 85 80 89 95 96 98 96 97 98 100 100 98 83 92 84 82 82 86 78 83 63 79 91 80 84 86 82 84 84 84 81 81 78 80 79
54 55 79 92 89 95 94 94 94 92 88 94 97 96 97 99 100 100 100 93 90 100 92 87 81 62 58 65 66 85 92 96 94 91 88 84 84 84 84 86 84 81 80 81
54 76 100 95 92 88 91 94 92 97 96 95 93 94 97 99 100 99 100 98 88 90 80 80 69 75 62 89 69 98 86 88 89 92 91 87 84 85 85 86 86 85 81 82
59 66 75 93 95 79 88 96 97 99 97 98 97 99 97 92 92 98 93 96 84 92 86 91 86 87 88 100 100 100 98 93 93 91 92 85 84 84 84 83 84 83 83 80
63 69 72 85 97 95 95 70 82 94 100 99 97 95 96 99 99 91 98 99 93 96 99 100 96 88 87 100 100 100 98 97 95 96 91 88 88 86 85 84 85 83 82 83
86 80 80 96 87 68 65 66 78 84 83 84 92 90 97 92 100 99 100 100 94 98 100 96 88 88 100 100 100 95 90 91 93 94 92 93 91 88 85 84 85 86 83 84
68 64 62 69 73 66 67 68 80 80 82 94 91 95 100 100 100 98 100 99 99 95 100 100 100 100 100 100 98 94 92 87 90 88 89 87 86 86 86 86 85 84 85 84
69 83 74 72 66 68 72 74 88 93 94 100 97 97 95 100 100 99 99 100 100 100 100 100 100 98 98 97 93 94 93 91 87 88 86 87 88 87 86 87 86 86 86 86

GFSNGP_sfc_rhum_003.txt.gz
RH
33 26 24 26 28 26 26 30 50 44 32 28 27 30 30 30 33 35 38 41 45 42 40 40 37 36 36 45 46 41 42 39 41 37 36 34 35 36 35 33 30 28 31 32
51 30 27 34 26 24 25 30 30 30 32 28 28 27 32 40 43 43 47 51 52 41 38 37 33 33 34 41 37 38 44 39 37 36 36 36 35 34 31 30 29 32 33 34
73 50 55 83 47 28 27 27 34 46 33 27 33 44 50 52 47 51 57 57 46 41 34 32 28 29 33 32 34 40 39 36 34 37 41 36 32 27 28 31 34 36 36 35
95 89 92 40 26 26 31 30 26 26 29 35 46 43 45 52 56 55 51 52 40 34 29 24 23 25 30 30 31 32 34 34 33 41 41 36 32 29 31 33 36 37 39 40
99 64 47 37 34 36 42 42 29 38 45 47 45 44 47 50 47 52 50 39 30 26 23 22 21 23 27 28 28 30 33 35 40 41 47 38 33 32 33 34 36 37 39 46
93 98 91 51 32 33 36 56 48 50 57 71 55 74 50 46 46 44 31 24 24 24 23 21 21 22 26 27 29 34 32 30 34 36 43 41 34 34 34 33 36 42 50 54
85 98 65 35 37 37 69 73 58 61 69 62 65 61 54 48 36 26 22 22 22 21 21 21 23 25 27 26 31 30 28 31 36 38 38 34 30 32 33 36 47 68 85 71
90 99 89 36 39 75 55 49 61 70 70 63 62 50 42 33 27 24 22 21 19 20 22 23 22 25 27 25 27 31 35 37 36 34 31 25 33 33 36 39 53 70 92 84
59 57 37 44 68 53 50 60 68 71 71 69 51 39 34 30 26 24 21 18 18 19 24 24 24 24 26 38 42 46 53 47 38 32 28 28 34 36 36 39 56 70 57 66
66 43 39 48 48 51 60 63 66 65 58 42 41 35 30 28 27 23 18 19 18 23 25 28 28 28 31 48 52 44 45 38 34 34 41 38 33 33 36 53 64 56 57 58
60 43 42 44 60 58 54 59 63 52 42 39 33 31 30 28 24 22 22 22 25 28 28 30 31 34 33 41 42 42 47 38 44 44 43 42 37 39 47 55 63 60 60 64
74 51 64 67 65 54 54 56 55 41 37 32 31 30 27 25 25 24 26 27 26 26 30 33 36 40 44 46 46 53 54 46 52 57 53 50 42 44 70 70 64 62 63 73
56 56 73 66 58 55 48 42 38 36 35 34 29 26 26 28 28 35 28 27 30 35 39 44 51 48 46 55 65 71 66 62 56 60 54 55 59 65 67 64 71 67 67 65
53 59 74 69 58 45 43 38 41 33 29 26 25 26 27 27 29 30 31 34 37 44 50 51 51 51 54 50 57 72 72 79 70 68 65 66 71 75 70 73 75 69 82 63
58 68 57 45 42 39 34 32 31 27 26 28 27 29 32 36 39 40 40 41 52 65 61 51 54 56 51 59 63 56 58 66 80 83 82 78 80 78 75 72 67 64 63 57
47 42 42 40 36 32 28 26 28 30 29 30 37 46 44 45 46 50 55 56 80 82 78 92 94 78 63 60 57 51 45 76 77 77 79 76 75 75 72 71 66 66 68 65
53 55 48 45 32 29 29 29 31 34 46 45 51 65 65 75 82 69 69 79 99 100 100 93 94 73 66 62 57 49 51 63 79 72 77 72 74 77 73 75 73 68 72 81
40 37 30 29 30 33 39 46 51 51 56 58 90 96 97 96 93 92 90 94 100 100 99 86 85 76 67 60 59 57 66 78 80 83 77 83 79 72 79 76 75 71 72 69
29 28 29 29 34 47 53 53 52 67 93 99 100 99 97 98 93 89 93 99 100 100 90 92 91 84 64 66 70 66 78 85 84 79 79 78 86 82 86 84 81 81 75 72
29 28 33 37 48 66 73 72 96 74 68 82 100 99 99 94 96 99 100 100 96 91 99 80 81 79 75 63 82 62 80 89 83 88 92 82 86 88 88 84 84 83 85 83
44 44 56 85 84 98 100 99 99 89 80 99 100 98 94 96 92 94 99 85 76 100 93 85 82 71 60 60 68 91 94 96 92 90 91 90 88 86 87 88 89 87 87 85
43 57 100 100 95 83 86 90 85 100 100 100 99 98 93 91 94 96 99 98 84 98 94 83 79 76 63 79 63 98 85 86 90 92 91 93 92 88 88 89 89 89 86 86
45 48 62 94 100 75 80 92 100 100 100 100 100 98 97 87 88 92 92 86 95 100 96 94 89 86 84 100 100 100 98 90 90 90 92 93 90 89 87 86 86 86 88 86
53 55 60 72 92 96 94 67 67 78 100 100 100 100 96 94 98 83 97 98 99 100 100 100 97 88 89 100 100 100 100 100 99 100 94 89 97 88 89 89 86 86 87 86
70 68 70 92 83 69 55 50 60 68 75 71 83 85 96 85 99 95 100 100 99 100 100 99 97 89 100 100 100 100 100 98 93 94 92 96 93 91 88 88 87 88 88 86
58 57 52 54 59 56 58 60 68 74 76 90 89 99 100 100 99 99 100 99 100 98 100 100 100 100 100 100 100 100 98 90 90 89 89 88 87 87 88 88 89 88 89 90
54 70 60 63 58 56 62 67 87 90 88 100 98 100 93 100 100 98 98 100 100 100 100 100 100 99 100 100 100 99 96 94 87 86 86 86 84 86 85 85 86 89 90 90

GFSNGP_sfc_rhum_009.txt.gz
RH
49 40 36 37 36 35 36 44 67 55 51 53 60 54 58 57 57 58 58 55 55 56 56 50 49 45 39 42 48 47 65 63 68 74 70 79 78 64 60 55 51 49 50 55
72 50 48 52 45 43 38 37 38 42 49 52 54 52 56 60 62 60 55 54 53 52 47 41 36 35 36 40 42 42 38 38 62 77 81 80 78 73 64 54 50 52 56 60
88 73 83 79 62 46 43 43 45 62 54 58 62 59 71 70 60 58 58 56 54 50 41 38 37 38 40 38 39 40 38 48 71 77 78 80 78 70 61 57 56 60 66 64
93 85 73 59 39 39 47 44 43 53 61 62 62 67 66 61 62 60 56 53 50 47 37 36 35 36 37 35 37 42 56 58 67 74 76 79 82 65 62 61 59 68 72 77
97 95 64 51 46 54 58 59 62 69 68 65 59 59 68 56 57 59 54 45 38 35 33 33 35 34 35 37 36 40 57 62 63 68 72 74 87 73 69 65 71 79 81 82
98 92 86 66 48 45 50 86 71 71 76 76 69 93 85 69 58 47 36 34 32 31 30 33 33 33 37 38 41 56 62 62 67 72 76 82 81 71 66 62 80 83 82 85
94 93 86 63 47 47 79 76 78 76 77 82 87 88 80 74 48 36 35 31 32 31 33 34 33 35 38 40 45 57 62 64 64 66 68 69 63 59 61 82 86 92 88 88
90 90 93 51 50 63 71 78 77 74 78 80 82 78 75 50 40 36 35 29 28 34 37 36 34 38 40 46 47 55 62 65 63 64 55 48 57 61 72 83 84 92 93 94
82 84 62 55 58 63 74 78 82 77 68 74 76 71 56 45 42 38 31 32 32 37 38 38 40 39 49 55 56 63 66 66 66 64 58 56 62 70 78 83 92 94 89 96
78 63 56 61 71 70 74 76 70 68 66 70 74 56 48 45 40 38 36 38 37 38 41 46 46 45 57 57 57 64 68 70 70 75 76 72 68 72 86 96 96 89 92 94
76 63 61 75 76 76 70 67 69 62 64 61 49 48 43 42 41 40 38 38 40 45 49 48 54 59 59 59 60 71 75 77 84 87 84 79 72 77 93 85 87 92 96 95
85 68 75 86 76 68 71 68 68 66 50 45 41 40 41 42 43 44 46 48 47 51 53 54 65 67 65 66 73 81 84 88 94 96 94 89 83 88 77 76 69 64 65 91
67 73 81 77 64 62 66 56 50 47 45 40 39 40 42 45 49 56 52 52 57 58 60 67 72 77 73 84 83 83 84 87 96 93 97 97 96 96 97 89 79 79 72 71
72 73 80 69 72 64 51 49 49 40 38 42 43 44 51 53 56 58 58 63 61 69 72 72 74 68 82 83 87 91 86 90 94 97 98 98 97 84 94 98 98 95 84 80
71 67 64 68 61 47 44 39 37 42 47 51 50 60 60 65 66 67 67 66 75 80 77 77 83 78 68 86 91 87 87 94 94 96 98 97 97 97 97 97 96 96 96 95
66 62 61 60 45 40 38 41 47 55 57 56 63 70 71 73 72 75 79 84 89 86 87 90 92 90 91 85 89 82 88 87 92 96 98 96 97 97 97 97 97 96 97 97
74 72 61 53 46 45 47 54 58 61 64 66 72 79 81 86 94 92 89 90 93 93 90 92 92 84 93 86 92 87 97 95 92 96 96 96 98 97 98 98 97 97 97 97
48 49 45 43 48 58 64 71 70 72 71 78 89 93 97 99 95 92 93 91 80 83 77 87 87 93 98 90 89 90 91 94 97 98 98 98 97 98 95 96 98 98 98 97
42 43 46 53 62 66 67 70 76 81 90 90 94 93 94 96 96 96 90 85 79 83 78 87 94 98 98 94 93 95 93 95 94 94 97 99 99 97 96 97 98 98 97 97
49 55 55 54 60 65 75 76 92 88 86 92 94 96 96 96 95 89 82 84 86 86 84 91 97 97 98 97 92 95 94 96 96 96 98 99 99 97 97 97 96 97 98 98
61 59 62 77 87 90 97 98 98 96 89 95 99 98 97 96 92 89 91 89 80 90 94 95 99 94 98 97 96 95 94 96 97 99 98 98 98 98 97 96 97 99 98 99
67 67 79 86 90 84 89 92 91 95 98 98 99 99 100 98 94 90 91 91 87 98 94 98 97 94 98 96 92 95 94 96 96 96 99 98 98 98 98 98 97 97 98 99
71 70 74 86 87 79 84 95 96 97 97 96 97 95 95 97 94 98 95 90 94 93 91 97 98 98 98 97 93 98 98 100 96 94 93 94 95 95 95 94 94 97 97 96
78 74 74 80 89 95 90 82 88 90 92 93 95 96 98 99 92 96 95 91 90 92 94 99 99 98 99 98 97 99 97 95 95 97 95 98 96 96 97 95 94 92 94 95
79 76 78 91 88 88 89 89 90 91 90 90 97 96 94 96 98 93 94 93 92 96 96 97 98 98 98 99 98 97 97 96 95 96 96 96 95 95 97 97 98 96 95 95
79 88 89 82 88 90 88 90 92 91 97 98 98 97 96 96 98 96 94 94 96 98 97 98 99 99 99 98 97 96 96 96 96 96 96 97 93 91 92 93 95 97 98 98
85 89 92 93 94 92 92 96 99 99 99 100 99 96 96 95 92 96 94 95 95 98 99 99 99 98 98 98 97 97 95 96 97 97 97 97 95 94 96 95 97 98 98 98

GFSNGP_sfc_rhum_015.txt.gz
RH
60 59 50 47 43 57 60 60 65 58 62 54 70 75 75 75 74 67 65 60 58 59 55 52 44 45 43 43 45 46 48 62 74 81 83 84 86 89 88 86 88 94 69 67
76 66 68 56 47 50 51 50 60 55 61 70 72 74 78 74 68 66 57 52 54 55 55 45 42 40 39 40 43 48 50 66 72 79 83 85 90 92 92 94 87 74 76 72
60 80 68 54 58 56 50 50 50 64 61 73 79 77 78 75 68 64 59 54 56 58 49 43 42 40 38 39 43 48 52 68 72 77 82 82 87 92 93 94 94 80 79 79
81 75 54 42 53 50 51 58 71 76 76 71 78 82 77 69 68 66 62 59 55 47 40 42 41 38 41 40 45 50 59 70 72 74 79 81 86 91 93 94 94 84 82 78
78 80 50 40 53 58 58 57 72 75 74 75 81 75 80 67 64 63 63 52 47 40 39 40 38 38 42 46 48 51 67 70 72 77 81 84 86 90 92 92 83 84 80 82
98 66 54 44 60 53 52 75 75 75 80 85 79 94 86 70 66 66 46 41 36 36 38 39 41 45 48 49 53 59 68 72 73 79 79 77 80 88 76 78 78 75 72 84
99 84 72 53 56 54 65 57 83 78 79 83 83 82 72 79 80 47 38 35 40 40 42 45 46 50 52 55 60 60 66 69 74 70 72 72 70 70 86 86 84 86 86 88
97 95 68 56 60 66 65 77 78 84 81 79 77 81 82 80 46 38 38 40 41 45 48 50 52 56 59 64 61 64 70 73 72 71 71 65 70 86 81 83 84 91 96 96
74 74 58 60 64 63 72 80 86 85 83 80 84 84 79 54 45 42 41 43 44 48 52 56 60 61 68 69 70 74 78 77 74 76 78 78 74 84 86 85 94 94 94 97
76 58 64 62 61 69 80 80 84 81 81 80 80 77 53 48 49 45 45 49 50 55 62 68 67 69 77 78 80 84 81 75 77 80 81 82 74 77 85 97 97 90 96 97
84 71 77 74 73 76 82 84 81 75 72 71 72 54 50 50 49 49 52 54 58 65 72 71 73 79 77 83 86 88 85 78 83 96 85 82 75 82 84 83 87 95 96 95
72 63 71 66 77 82 85 82 74 72 63 52 46 48 48 54 55 56 60 61 66 71 74 75 84 80 80 83 91 90 94 92 98 98 93 86 86 86 76 83 79 76 77 92
56 62 68 73 83 80 78 79 78 55 47 46 46 48 54 57 60 66 62 66 72 76 79 88 89 89 86 89 92 92 89 90 99 98 96 97 96 95 95 84 80 80 77 80
71 82 88 87 87 79 69 61 52 44 46 50 54 56 58 60 64 66 70 76 78 83 90 91 90 78 86 90 91 93 92 96 99 98 97 96 96 96 97 97 98 98 85 83
75 78 77 80 73 59 45 42 49 54 61 60 59 62 63 64 69 77 82 84 89 92 90 76 72 75 78 89 94 97 96 98 99 97 98 97 96 99 98 97 97 99 98 95
86 82 81 76 59 45 51 64 73 77 62 61 66 66 70 78 81 84 86 88 95 95 84 83 81 78 81 87 94 98 98 99 98 93 94 94 98 99 99 98 98 99 99 99
87 91 68 57 64 78 82 82 76 62 67 66 66 72 76 84 94 88 90 94 97 96 91 90 87 74 84 90 98 98 98 98 93 90 94 97 98 98 98 98 97 96 98 98
70 69 72 83 92 96 98 82 68 70 69 68 89 94 95 98 93 93 94 94 96 95 91 86 88 85 91 92 98 98 97 98 94 92 92 99 98 98 98 98 98 96 96 98
86 89 91 93 94 90 72 68 72 78 90 92 94 91 92 93 95 95 96 98 97 96 85 91 92 95 90 87 99 98 98 98 97 97 97 98 100 100 100 100 98 97 96 98
93 92 86 73 68 65 76 69 88 83 81 94 96 98 96 94 96 96 97 98 93 89 90 90 93 95 94 92 98 98 99 98 97 96 99 98 100 100 100 100 98 97 97 98
81 71 75 88 87 89 91 94 96 92 86 95 100 99 98 96 98 98 100 99 89 91 90 92 94 94 91 94 96 98 98 98 98 97 94 94 96 96 97 98 97 96 98 97
68 74 85 85 87 79 85 89 90 95 96 97 97 98 99 98 97 99 96 96 92 95 96 95 94 93 93 95 97 98 98 98 97 97 97 97 96 95 95 95 95 97 97 96
78 79 80 89 89 78 86 92 94 96 96 94 94 93 95 93 97 99 98 90 95 96 97 97 97 95 94 97 97 98 98 98 97 97 96 94 94 94 95 94 92 93 95 95
78 74 76 81 94 94 88 78 84 89 94 93 93 93 95 98 96 98 98 98 99 98 97 96 98 94 97 98 95 97 97 98 97 97 96 96 96 96 96 96 96 94 92 92
81 79 81 93 88 89 85 85 91 92 91 91 94 94 95 96 98 98 97 97 94 96 98 98 82 86 92 92 96 96 96 95 95 95 95 96 96 95 96 96 96 96 96 94
86 94 94 90 94 95 94 94 96 95 98 99 98 96 96 98 98 98 96 96 98 99 99 99 98 96 95 93 92 91 91 90 89 92 95 94 93 93 94 94 96 97 97 97
94 97 94 92 90 93 94 98 98 98 98 98 98 95 97 97 97 98 98 98 98 99 98 98 97 95 97 96 95 95 94 93 92 92 92 91 92 95 94 94 95 97 97 97

GFSNGP_sfc_rhum_021.txt.gz
RH
54 54 46 37 44 49 41 44 51 41 42 33 38 48 52 59 65 62 60 57 53 50 49 47 46 43 41 38 36 36 36 36 43 49 58 60 64 63 65 68 69 71 71 67
58 60 58 51 43 44 50 50 44 46 46 36 38 51 60 65 65 62 58 54 50 48 48 47 45 40 39 36 35 37 38 41 45 53 57 60 61 66 66 67 67 74 69 61
60 62 51 60 48 44 46 47 44 50 38 54 56 60 57 61 63 61 58 54 49 48 45 46 44 41 36 32 35 39 42 42 46 58 60 60 59 61 62 64 72 76 64 57
73 71 59 37 45 41 44 42 41 41 42 50 53 60 62 59 62 63 57 52 46 43 44 38 37 34 35 32 37 42 43 45 53 58 59 58 63 62 61 62 70 70 62 61
79 59 42 27 36 50 55 37 42 41 48 64 67 63 61 63 59 57 55 49 44 45 38 37 33 33 34 37 39 41 44 48 53 59 59 61 61 59 57 62 64 62 59 58
78 65 61 41 32 47 43 60 41 51 65 72 63 74 53 62 60 60 53 52 43 36 36 33 36 38 41 41 45 46 51 52 55 56 60 61 59 57 56 56 59 58 56 56
81 79 58 41 41 46 55 53 54 63 64 72 68 62 56 61 62 52 48 37 35 35 35 36 41 44 43 47 50 52 57 59 58 56 60 59 58 55 55 56 65 70 73 66
85 78 69 45 51 61 56 55 54 65 66 72 63 67 65 66 58 42 37 39 39 40 42 46 46 47 45 51 56 56 58 65 60 62 60 56 60 57 59 64 69 72 86 80
63 65 51 48 58 52 56 53 54 66 62 64 70 67 68 63 44 37 34 36 35 38 46 48 49 52 54 58 59 62 68 66 60 61 62 60 62 61 58 60 68 72 68 75
67 52 55 53 49 52 49 55 55 61 61 68 67 69 70 45 42 43 38 43 41 44 45 50 53 58 65 63 63 68 68 70 68 65 61 63 69 60 59 69 71 68 75 73
72 62 57 52 57 54 54 59 62 62 66 70 69 72 51 50 54 58 63 47 46 49 54 54 58 64 66 66 70 70 72 70 72 73 78 73 73 60 63 65 68 74 73 74
71 50 52 50 44 54 63 63 65 70 76 72 66 56 51 64 70 62 50 49 49 57 58 59 66 70 70 68 74 78 78 75 77 79 78 78 74 66 77 80 80 80 80 89
52 55 54 56 54 58 64 68 74 72 59 60 56 57 64 72 66 66 49 53 56 58 67 71 72 70 66 71 77 80 78 80 79 86 83 83 85 83 82 76 80 82 84 83
65 69 71 68 71 76 65 53 56 57 63 73 80 81 84 76 72 62 58 59 68 71 72 72 69 66 66 66 73 82 80 91 88 84 86 89 88 89 87 90 92 84 79 75
76 77 76 66 55 51 52 64 80 88 89 89 82 82 78 76 71 74 80 82 77 74 73 66 67 64 62 72 73 75 76 84 92 96 95 95 95 94 90 90 89 83 81 85
77 60 62 69 70 74 84 91 95 97 97 95 89 80 74 70 81 85 84 76 86 77 65 84 87 72 73 70 73 76 78 89 94 92 94 92 92 93 85 88 86 86 86 82
82 89 91 95 95 96 96 96 96 97 95 86 83 84 85 93 90 84 84 88 92 92 89 90 87 67 76 72 77 74 76 77 95 96 89 86 90 94 84 86 89 87 86 95
92 95 96 96 96 97 98 95 92 88 85 81 92 96 95 96 94 93 90 90 94 94 88 85 86 77 78 74 78 78 84 86 91 95 92 95 91 91 87 84 85 86 84 86
81 85 86 82 79 82 84 84 82 85 94 96 96 97 96 94 88 86 90 95 96 93 78 86 87 88 79 79 85 87 93 94 90 86 92 93 95 92 92 92 92 91 88 87
73 76 78 79 81 84 86 84 92 88 84 91 94 94 92 91 92 94 94 95 87 79 85 84 87 87 87 83 90 85 96 99 91 89 95 94 95 96 95 93 89 91 92 91
74 72 78 87 86 88 92 92 93 88 86 93 93 93 94 93 95 99 99 91 79 91 86 89 86 80 76 84 86 91 93 95 99 97 98 98 97 95 96 96 96 94 94 94
74 80 92 90 86 80 84 85 84 92 92 93 93 94 95 90 92 95 96 94 79 93 87 87 81 85 83 98 85 90 93 98 99 98 97 97 95 95 95 97 96 97 97 97
80 77 80 89 91 84 86 90 93 94 94 93 94 94 93 89 87 94 94 81 85 92 92 92 91 95 97 98 97 98 96 97 98 95 95 96 96 96 95 95 95 95 96 96
83 87 88 88 93 91 92 84 86 86 96 96 93 97 97 97 93 84 88 91 94 98 99 98 98 96 96 99 96 95 93 92 91 92 88 87 89 90 90 92 91 91 92 92
93 88 88 92 88 86 80 75 76 76 76 74 77 75 78 79 97 93 92 90 91 96 97 94 95 95 96 96 94 93 92 91 92 92 92 92 92 92 91 90 92 92 92 93
81 81 81 79 78 74 71 73 80 79 84 87 84 87 88 86 85 88 87 88 92 93 96 97 95 94 94 94 92 92 91 89 90 90 91 91 91 90 91 91 92 92 92 92
78 78 74 73 70 72 75 78 86 87 86 91 89 87 84 85 85 85 83 87 90 94 96 95 94 92 92 93 93 91 90 90 90 89 90 91 91 92 92 92 92 92 92 92

GFSNGP_sfc_rhum_024.txt.gz
RH
32 33 32 28 28 29 26 25 36 18 20 12 15 18 21 28 33 37 41 42 43 41 38 37 39 37 35 36 34 28 25 24 29 32 34 36 44 44 44 46 44 44 48 50
44 40 37 36 27 25 26 25 27 22 22 16 18 21 26 35 37 40 41 41 41 40 37 35 37 38 37 35 30 27 26 29 30 34 35 39 44 46 43 45 43 44 47 53
42 43 41 72 39 27 24 26 29 32 23 18 26 27 26 30 37 39 39 40 41 39 36 34 33 45 38 30 28 28 28 30 31 36 37 41 38 38 40 44 48 48 51 53
68 70 82 21 25 24 26 23 20 22 18 22 22 29 34 32 31 38 39 40 40 37 35 33 35 33 30 24 26 29 30 31 31 36 39 38 40 40 45 46 47 48 51 50
92 44 28 14 23 28 33 22 20 21 20 20 37 41 34 37 37 38 40 40 38 35 34 33 31 28 25 25 26 29 29 29 33 40 42 38 39 44 46 46 47 48 48 52
73 89 89 28 30 34 33 36 24 29 32 37 41 50 21 35 42 44 41 38 37 33 32 30 26 25 27 28 30 27 32 35 38 40 40 40 42 46 47 47 45 44 48 52
72 92 47 25 25 36 43 34 32 36 36 43 44 30 38 39 44 41 39 38 34 30 27 27 29 31 31 29 27 31 39 40 37 38 41 43 46 48 48 48 50 58 65 58
77 97 80 30 38 46 37 36 37 35 37 46 40 44 46 44 43 42 40 34 29 29 29 35 35 31 25 24 32 40 40 39 41 43 43 42 49 50 50 51 57 64 97 81
46 44 33 34 34 33 40 41 39 41 34 42 46 44 44 47 46 40 32 29 29 33 43 41 32 28 26 35 48 43 46 46 46 47 47 44 49 54 58 52 57 62 60 68
50 29 32 33 32 31 31 35 33 32 35 39 45 41 46 46 40 34 30 32 41 59 51 43 36 41 43 46 47 48 50 48 47 50 50 48 47 58 59 58 62 59 61 61
52 39 33 30 31 34 34 37 40 38 41 46 47 46 47 43 38 36 46 63 60 49 37 34 41 44 44 48 50 48 48 51 56 55 54 50 48 56 59 55 61 62 65 68
55 42 43 37 36 40 45 45 48 52 51 52 54 53 46 41 50 68 67 62 50 39 39 40 52 48 49 49 51 60 62 59 60 62 58 59 57 56 76 77 79 78 80 84
57 53 54 50 47 54 57 52 50 51 51 52 48 45 56 74 70 71 55 51 54 55 58 62 60 58 51 56 65 67 61 62 61 66 64 65 70 76 78 74 82 84 85 84
58 60 56 60 61 50 52 55 62 62 67 74 77 78 82 89 92 84 69 59 63 70 69 66 67 61 53 52 60 66 66 80 67 67 72 78 78 80 79 84 89 86 90 76
58 55 59 49 50 55 58 67 84 90 89 95 95 97 95 94 86 75 71 78 78 78 73 63 53 48 47 62 62 61 62 64 77 86 82 88 92 91 91 93 95 75 70 81
63 58 59 68 81 91 90 90 94 98 95 89 82 81 70 65 66 70 72 76 85 72 62 89 88 64 62 58 56 58 59 78 80 70 73 86 83 82 87 93 91 81 75 73
75 93 97 97 95 95 95 90 76 65 64 64 72 74 66 69 79 73 65 70 99 100 100 98 88 52 60 62 62 58 57 56 72 69 67 71 82 86 86 95 91 80 84 96
92 90 81 80 88 83 70 70 72 76 76 76 92 100 100 100 88 87 98 100 100 100 90 77 79 66 66 62 61 62 68 72 80 86 77 85 87 87 95 94 89 81 83 85
61 62 62 61 63 68 68 66 67 74 93 98 99 100 100 100 84 78 89 100 100 98 69 71 80 86 68 68 76 70 80 91 92 89 86 86 94 91 98 100 99 99 89 86
54 52 53 58 63 70 78 72 95 68 68 85 100 100 100 100 100 100 100 98 84 72 66 68 72 75 75 72 82 64 80 91 90 96 100 93 98 100 99 97 96 100 100 100
58 59 68 71 71 91 100 97 100 82 79 98 98 98 96 100 98 100 98 76 62 91 74 80 76 69 62 64 63 91 94 99 99 98 100 100 100 98 100 100 100 100 100 100
65 72 96 92 81 77 81 75 80 95 92 92 92 94 94 89 92 95 98 94 76 86 81 80 77 80 72 89 73 99 96 94 97 100 100 100 100 100 100 100 100 100 100 100
68 71 82 91 92 76 77 77 86 86 89 88 88 88 84 79 78 84 84 68 73 80 80 86 94 98 98 100 100 100 100 100 99 94 96 97 97 92 92 91 92 97 100 97
74 73 75 74 77 69 64 55 57 60 79 76 78 83 80 86 91 68 74 80 82 88 91 93 96 93 97 100 100 100 100 98 91 91 90 88 88 86 85 86 85 85 84 84
77 68 65 70 61 58 53 53 53 54 58 59 64 61 68 65 81 81 86 86 80 81 87 85 88 96 100 100 100 98 95 95 91 89 89 91 90 88 87 86 87 88 88 87
61 59 58 59 59 54 55 55 61 60 62 70 68 75 76 74 74 77 81 80 80 79 92 95 92 94 94 93 93 93 92 90 90 86 87 88 87 85 86 86 87 88 88 89
61 63 57 57 54 55 61 63 73 74 73 82 82 79 75 79 81 79 81 88 90 86 88 90 91 91 91 92 92 91 91 91 91 86 85 86 85 86 86 87 88 89 88 90

GFSNGP_sfc_rhum_027.txt.gz
RH
23 23 22 21 18 20 21 20 29 22 13 9 9 10 12 14 18 19 25 29 32 34 35 35 35 36 33 35 41 39 34 25 25 27 30 31 31 34 37 39 37 37 37 38
40 28 27 27 21 17 16 17 15 14 15 11 14 11 14 15 19 20 22 27 31 33 34 35 34 35 32 37 37 42 30 28 26 29 30 31 32 39 40 37 35 37 38 40
36 32 31 63 36 24 18 16 19 26 18 12 15 18 18 17 20 23 24 27 30 32 34 34 34 36 34 35 43 36 28 25 27 30 31 32 31 31 33 36 40 42 42 43
55 69 82 17 16 15 20 16 14 14 13 12 13 18 21 19 21 22 24 26 28 30 33 33 32 32 35 37 31 29 27 26 28 28 28 30 32 33 35 38 41 42 43 47
90 41 25 17 13 20 22 19 15 17 15 14 19 27 24 21 22 22 22 25 28 30 32 32 30 34 37 31 28 25 28 27 24 26 33 34 33 34 36 39 42 44 41 47
57 86 88 32 22 23 23 32 19 19 20 21 23 34 21 24 24 25 27 28 30 31 32 31 31 29 28 28 29 29 27 26 26 32 34 33 35 38 40 41 41 40 41 48
66 83 49 21 21 26 40 41 28 25 24 26 29 24 33 30 26 26 26 29 31 32 32 31 27 30 30 34 36 26 28 32 35 31 32 35 38 41 42 44 48 58 69 60
71 98 79 22 26 37 37 27 25 28 28 34 35 32 31 33 31 30 32 32 33 33 30 28 33 44 46 39 28 32 40 42 34 33 34 35 42 44 46 48 55 62 97 75
41 44 29 24 24 23 27 32 31 31 29 30 33 31 31 32 34 34 33 31 28 27 36 46 45 48 52 34 46 49 45 42 39 38 39 39 44 47 47 51 60 69 70 80
43 22 22 22 22 24 26 29 28 29 32 33 37 36 36 35 39 36 28 26 31 46 58 73 70 48 42 46 51 46 46 45 44 44 45 47 47 40 49 71 71 71 70 68
39 29 25 24 26 32 35 36 36 36 39 40 45 42 40 41 37 32 40 47 62 80 86 56 40 39 44 49 50 49 45 45 50 55 59 50 44 47 51 57 69 67 70 72
55 40 49 41 39 46 46 48 46 46 46 44 44 46 41 39 41 52 73 87 72 60 54 42 52 49 45 46 47 53 56 58 68 67 63 55 52 59 66 75 77 73 75 84
48 49 50 49 46 44 50 50 48 50 47 51 50 50 55 66 70 73 78 82 71 59 60 60 55 60 53 50 62 74 68 66 62 63 56 60 68 72 76 70 82 81 80 81
50 51 54 49 51 50 54 58 66 68 69 71 73 81 94 96 91 83 78 68 54 54 60 58 56 58 56 52 57 63 61 78 62 60 69 71 77 79 79 78 87 87 94 81
50 46 47 48 53 62 62 64 71 79 84 84 81 83 82 82 73 64 56 58 59 59 58 55 54 45 37 50 55 60 59 58 67 76 82 84 81 83 77 80 80 80 81 82
54 56 64 72 76 70 66 70 74 77 69 57 57 60 54 51 52 52 50 53 69 61 51 88 88 56 55 49 48 51 52 73 76 71 75 74 74 74 81 80 78 84 88 79
90 96 90 82 75 67 61 54 49 52 54 59 68 68 62 67 68 58 55 60 94 100 99 93 93 55 60 50 51 54 59 66 78 68 74 76 79 80 79 84 86 86 92 98
73 74 63 63 62 60 59 63 65 62 64 71 94 100 100 100 93 81 85 92 100 100 86 70 68 65 62 55 55 62 72 76 80 83 80 86 86 84 84 83 82 85 89 93
59 58 55 54 54 52 51 58 66 65 92 95 98 100 100 100 87 84 90 100 100 92 58 57 76 76 64 65 72 70 79 88 86 75 80 83 93 92 90 95 94 95 92 96
49 46 46 53 61 66 68 71 88 66 70 90 100 100 99 100 100 100 100 96 86 74 74 77 78 72 67 63 77 72 85 94 86 86 95 92 99 100 99 91 93 98 100 100
51 56 65 64 74 89 99 98 98 77 73 95 93 91 91 96 94 91 85 68 58 77 74 74 70 71 71 76 82 97 98 100 100 96 98 100 100 99 100 100 100 100 100 100
57 75 100 94 73 72 72 65 74 86 85 86 88 87 87 71 77 80 87 74 63 75 74 72 68 72 76 84 84 97 98 100 100 100 99 97 98 98 100 99 98 96 97 98
66 73 82 87 91 69 63 61 90 81 82 82 81 81 75 66 60 71 74 57 65 70 73 78 78 78 81 92 98 100 100 100 100 100 100 96 90 90 91 93 92 89 84 84
68 69 69 64 64 56 53 49 48 50 73 68 72 79 67 72 74 60 64 70 72 79 82 85 94 83 84 98 100 100 100 100 99 99 93 92 93 89 87 89 88 84 82 83
66 59 58 62 52 50 47 45 43 44 50 50 57 54 64 60 76 71 77 78 74 77 82 80 79 80 89 93 91 91 94 94 94 94 93 94 94 90 86 85 84 84 84 86
56 53 52 52 52 47 48 46 55 55 58 67 66 72 72 69 68 72 73 76 75 77 82 87 88 86 88 87 89 90 92 90 91 91 92 92 91 85 82 81 81 82 85 87
57 60 52 52 47 48 55 58 69 70 68 80 78 73 67 72 78 76 79 81 82 83 84 84 85 82 83 87 87 88 89 90 90 90 91 91 86 83 83 82 82 83 85 88

GFSNGP_sfc_rhum_030.txt.gz
RH
20 19 22 24 20 18 19 24 39 31 18 14 13 16 15 17 20 19 19 25 28 32 38 40 44 45 43 47 46 47 45 43 45 48 38 41 46 47 49 53 50 51 52 55
40 27 25 29 23 21 18 16 17 16 17 12 13 16 18 17 16 18 20 20 26 30 33 40 42 42 44 44 47 48 47 49 42 41 40 45 47 50 53 56 52 51 53 54
62 34 35 59 36 25 20 17 19 27 22 16 16 14 20 21 20 21 24 23 25 30 34 38 45 50 48 41 47 48 50 43 43 38 41 45 41 42 45 51 55 57 58 57
80 74 74 23 16 15 19 16 14 13 15 14 22 20 18 18 22 24 22 26 27 28 33 37 41 48 48 36 45 52 46 39 39 39 37 37 43 47 52 53 57 60 60 59
98 61 33 23 16 19 22 21 17 18 18 16 18 22 22 23 25 28 30 27 27 30 33 38 41 41 39 41 44 42 36 41 39 35 36 42 47 50 52 54 59 60 56 60
76 91 86 36 22 19 19 45 22 24 26 26 22 54 36 32 29 30 25 26 28 30 34 38 39 40 43 36 38 43 42 40 40 38 43 47 49 53 56 56 53 56 61 64
79 96 64 24 22 23 50 56 30 29 30 32 38 38 37 36 35 30 27 30 34 36 38 37 35 38 47 52 57 50 46 45 43 50 54 47 52 54 56 59 67 74 76 74
86 100 90 22 25 40 45 38 33 33 35 43 41 38 36 31 30 32 31 35 34 37 40 47 47 52 59 61 57 58 60 62 58 49 46 41 56 58 60 65 76 79 98 91
60 66 36 25 29 25 31 35 36 38 34 37 41 39 36 36 37 37 34 32 32 44 55 66 65 64 66 68 61 59 62 56 56 52 48 45 58 64 66 68 84 88 93 95
50 26 24 24 22 24 30 39 36 37 39 42 47 49 44 42 42 36 36 36 45 61 80 85 68 62 54 49 54 59 68 68 59 57 58 61 57 61 66 89 92 92 92 93
40 31 30 29 41 45 44 46 46 44 46 47 47 47 43 41 46 53 63 72 82 83 74 66 52 48 53 56 61 64 61 55 62 71 72 68 60 62 79 78 87 91 92 93
71 49 52 52 48 46 50 49 48 48 50 50 47 49 52 63 68 72 75 69 69 64 58 51 56 55 52 51 52 59 62 68 86 91 88 73 65 69 68 75 79 78 78 88
51 49 50 50 48 52 64 62 59 59 58 61 59 60 63 69 71 82 77 74 71 67 62 56 56 57 55 58 65 77 81 83 84 84 84 83 88 80 83 80 80 84 84 82
47 50 58 49 60 58 62 64 66 64 65 68 70 74 80 84 80 76 73 65 55 51 53 54 55 57 58 58 66 79 80 80 77 79 89 92 87 88 88 86 88 85 88 83
48 46 56 59 59 61 59 60 65 69 71 72 68 71 68 67 60 56 54 53 54 54 49 45 52 53 45 62 58 70 72 74 79 88 92 92 91 87 84 84 87 88 89 88
61 60 62 66 65 62 60 62 68 69 60 63 68 68 53 48 48 49 47 61 77 79 74 94 97 80 70 57 53 56 60 75 82 84 91 90 86 87 82 82 82 85 85 85
81 83 74 70 66 60 54 59 65 65 61 66 82 91 80 84 76 79 74 84 97 98 95 94 90 66 77 68 64 64 68 69 82 92 93 97 92 86 86 88 94 91 87 88
68 64 63 60 60 69 66 62 64 71 81 92 95 95 96 96 94 89 94 92 96 94 92 85 86 85 81 70 71 76 79 79 80 86 92 93 90 87 87 88 94 94 89 87
58 60 59 56 56 55 59 69 79 88 95 98 96 95 92 90 87 88 81 86 89 86 94 81 82 74 73 76 85 87 94 97 94 85 86 95 91 89 89 90 90 93 94 92
55 53 54 66 71 77 86 90 87 82 84 90 93 92 89 88 95 92 91 87 75 84 72 72 70 68 66 68 76 73 77 83 86 91 98 97 94 91 93 92 91 96 98 95
55 63 78 84 90 95 98 94 89 76 76 94 93 94 93 89 88 88 78 70 72 70 71 71 68 69 73 76 77 79 82 86 88 88 97 99 99 98 94 91 97 99 98 97
67 88 97 91 81 78 73 72 78 90 89 92 93 91 87 68 76 75 80 78 72 76 75 71 83 84 78 84 78 88 90 93 92 90 90 90 97 99 96 95 94 96 95 96
80 84 86 86 83 71 66 67 91 87 87 88 90 84 77 71 69 76 81 68 72 79 74 83 84 81 82 88 88 89 88 93 94 95 96 97 98 98 98 97 96 96 95 94
78 78 76 69 71 62 60 53 52 58 81 76 85 90 74 80 82 71 73 78 80 85 83 86 88 83 84 88 89 89 91 92 92 93 94 94 96 95 95 96 95 94 92 89
72 67 63 71 59 57 51 47 48 52 57 58 63 61 68 69 85 81 82 83 82 82 84 82 85 85 86 88 89 89 90 92 93 94 93 94 94 95 94 94 94 91 89 88
66 63 58 55 54 51 54 52 62 63 63 75 74 81 81 80 80 80 82 83 83 83 85 86 88 90 88 86 89 90 90 90 91 91 93 93 94 94 94 94 90 88 89 88
63 67 57 59 52 53 63 65 74 76 76 88 84 83 78 83 84 81 84 86 86 88 87 87 88 89 89 89 88 87 88 89 90 92 93 93 94 94 94 93 90 89 87 90

GFSNGP_sfc_rhum_033.txt.gz
RH
35 34 31 31 34 33 30 41 52 44 37 29 28 24 26 26 28 27 27 36 44 45 47 50 52 59 61 59 50 45 46 46 55 56 48 52 52 52 54 58 55 52 52 55
57 40 37 42 35 34 32 31 32 32 34 24 25 24 25 24 24 25 29 30 33 41 57 58 62 66 61 55 51 49 50 54 54 55 50 55 51 48 51 54 58 56 57 61
72 49 44 56 40 33 35 33 32 37 34 33 31 29 30 29 29 32 32 32 32 35 43 57 63 65 64 57 62 61 63 56 57 61 55 51 45 45 50 52 54 60 61 62
83 75 57 40 26 21 24 27 26 26 28 31 30 32 35 35 38 38 35 34 35 39 41 51 71 76 63 59 59 62 58 50 48 50 49 52 48 53 58 62 65 66 66 64
78 84 54 36 31 36 35 38 33 36 34 32 31 34 51 42 41 39 37 37 37 43 48 62 62 52 52 56 58 48 49 50 52 54 51 54 62 70 72 71 63 65 64 66
90 84 72 56 31 30 29 61 42 40 44 43 39 68 65 44 42 42 42 46 45 44 46 50 50 44 52 57 58 62 62 56 58 61 64 69 75 76 68 59 53 62 63 68
96 93 78 47 31 36 50 61 46 42 46 48 54 59 52 47 44 44 42 46 52 60 62 62 60 62 66 65 66 60 61 65 70 72 70 70 70 62 60 64 71 80 83 80
97 98 84 38 36 44 63 52 44 45 50 53 56 53 52 49 48 43 46 54 64 73 74 71 66 68 72 71 62 64 70 73 71 65 61 57 65 62 64 72 76 81 96 93
78 84 62 40 38 44 44 52 58 60 62 62 66 63 59 48 42 46 57 73 76 77 70 66 63 68 77 73 67 74 74 71 70 69 66 61 67 71 74 76 88 87 96 97
58 48 45 42 56 57 59 64 60 57 58 60 63 53 50 56 65 78 81 86 78 76 75 75 68 62 64 66 67 72 79 80 80 80 74 72 73 76 81 94 95 94 94 95
56 51 67 64 64 60 60 60 59 58 58 55 58 62 72 79 82 80 80 77 74 77 76 69 60 63 67 70 72 75 76 76 73 80 82 83 82 83 87 85 91 92 92 93
85 70 70 72 66 64 68 67 64 65 68 65 68 75 76 81 80 71 76 75 73 76 67 63 63 68 66 66 70 77 77 79 93 95 93 88 90 88 80 80 80 82 83 88
73 64 67 72 70 68 72 70 68 70 68 75 75 76 81 91 88 89 88 80 74 73 72 72 69 69 68 69 73 76 84 88 93 93 92 92 93 93 93 90 83 82 84 86
59 62 74 72 80 71 72 72 74 75 78 84 87 88 92 91 83 82 81 76 67 65 66 66 69 71 70 69 75 81 85 89 91 91 90 89 92 92 94 93 89 84 88 84
70 67 70 68 68 70 68 72 77 76 79 87 86 88 86 83 77 72 72 71 72 76 80 81 84 80 76 84 80 81 84 90 89 89 89 88 88 91 93 93 93 90 90 96
70 69 70 74 72 70 75 76 76 79 78 77 83 89 82 79 78 80 85 91 97 97 95 96 96 92 91 83 82 83 83 85 87 88 90 92 92 93 94 96 95 94 92 91
85 89 82 80 77 68 72 72 72 74 82 95 97 93 93 95 93 95 93 90 92 94 97 94 85 70 83 68 70 79 88 90 92 92 94 92 91 93 96 98 96 95 96 93
71 70 68 69 74 76 77 84 89 96 97 93 90 90 91 93 92 85 90 90 92 94 83 80 75 76 76 71 78 83 83 80 78 80 80 86 94 98 96 94 95 96 93 96
65 65 67 66 67 75 82 91 96 98 94 88 92 95 94 97 89 88 90 94 90 85 81 74 78 76 80 83 80 79 82 84 85 83 84 87 88 86 88 94 98 97 96 97
70 76 80 83 86 90 95 92 89 87 89 91 94 94 93 95 96 93 93 92 81 84 76 71 84 75 71 71 82 82 92 92 88 87 92 92 90 89 95 98 98 98 97 98
79 85 92 92 95 91 90 90 89 87 89 93 90 95 96 95 89 92 90 88 81 78 76 90 79 75 68 84 84 89 90 92 92 93 93 94 92 93 91 98 98 98 98 98
85 91 93 88 82 84 85 82 83 90 92 94 95 93 90 83 90 90 93 88 82 92 83 86 86 86 81 93 85 90 90 91 90 91 92 92 93 94 95 95 96 96 96 95
93 93 90 86 81 78 84 81 90 85 90 92 94 93 91 92 94 97 94 80 82 90 82 96 98 93 93 91 92 91 91 93 92 92 92 93 94 94 94 95 95 95 95 94
90 85 79 76 79 77 68 70 76 70 88 91 92 91 90 97 97 92 94 96 97 97 97 92 97 96 97 96 94 95 92 92 92 92 92 88 92 93 92 94 94 94 94 93
80 79 77 81 72 72 66 66 72 71 75 80 80 77 86 93 95 97 97 97 98 97 97 96 97 100 98 99 98 96 97 94 94 94 93 92 93 92 93 93 93 94 94 93
78 72 68 68 72 71 73 80 88 88 92 97 96 95 95 97 96 96 96 96 95 97 97 98 98 98 99 99 100 99 99 95 92 96 94 92 92 91 92 92 93 93 93 94
78 77 70 71 69 76 85 90 95 96 98 97 96 96 96 96 98 96 97 98 98 98 98 99 98 98 95 99 99 99 100 98 95 96 98 93 92 92 92 92 92 91 90 90

GFSNGP_sfc_rhum_036.txt.gz
RH
39 40 42 40 37 39 37 43 52 41 43 31 30 31 32 29 30 39 56 55 57 55 58 60 68 63 64 71 68 63 59 60 71 71 58 62 61 59 63 61 59 58 60 62
55 47 42 45 37 38 38 38 43 39 42 36 32 34 34 34 31 35 37 37 41 52 56 62 67 78 75 71 73 66 62 68 68 65 63 61 63 60 60 57 57 60 61 64
70 53 47 62 45 36 36 39 36 41 37 37 35 31 33 40 39 39 39 40 42 45 63 68 73 76 78 70 70 71 68 67 66 61 62 63 58 55 58 63 67 68 67 68
81 69 68 46 34 33 39 37 34 35 37 43 45 50 46 44 44 42 41 42 47 55 59 72 83 79 75 71 74 69 62 60 61 58 58 61 65 65 73 74 70 71 70 69
76 78 58 40 31 32 39 46 42 40 40 39 46 55 54 50 50 53 58 61 64 64 62 64 68 70 69 66 58 57 57 60 60 62 64 67 73 82 79 78 75 70 66 73
94 75 70 52 37 32 38 64 44 48 50 50 48 77 66 54 58 55 56 59 61 60 60 61 60 57 61 66 67 71 71 69 69 71 81 84 83 78 80 76 64 67 71 75
97 84 69 49 37 38 43 49 48 50 51 51 60 62 57 57 55 56 63 67 68 68 70 70 66 64 69 70 73 71 74 78 83 85 85 79 77 77 72 71 74 82 84 85
96 93 69 50 38 44 53 60 54 58 60 68 72 72 60 52 58 68 74 72 69 73 74 69 62 63 70 76 71 70 76 82 82 75 68 67 79 80 78 83 84 84 92 92
76 77 58 48 51 55 56 64 71 77 75 74 73 57 55 64 73 79 81 77 68 65 69 69 67 66 72 78 77 79 75 75 77 77 78 77 83 83 84 85 93 91 93 95
69 69 75 76 68 69 70 69 66 66 66 60 63 68 79 81 82 85 83 73 69 70 72 72 66 68 75 74 74 78 80 83 85 87 86 85 84 87 91 95 94 93 95 94
82 83 72 72 71 68 68 66 67 65 67 71 74 78 80 85 85 82 76 74 72 72 71 67 68 72 73 74 75 77 80 82 84 84 86 89 89 91 92 90 90 90 92 93
78 68 77 82 77 71 72 72 70 73 78 75 76 81 80 86 85 83 77 75 72 73 75 74 73 72 69 69 73 79 82 83 91 95 93 91 92 87 83 86 83 86 86 93
81 74 78 78 74 71 77 76 75 78 78 85 83 84 85 91 90 87 85 83 82 80 77 75 76 77 76 79 81 82 84 84 91 91 92 92 90 92 90 79 86 85 85 84
72 73 84 78 87 78 80 80 80 81 82 85 91 92 92 92 89 87 86 79 76 79 86 90 92 94 91 91 92 89 89 89 91 91 91 90 91 89 88 90 93 91 86 83
78 74 77 75 75 79 76 76 82 89 91 90 89 89 86 87 93 95 95 93 92 96 95 86 84 83 80 88 87 91 92 92 93 94 95 96 97 98 98 98 96 91 92 96
77 76 76 80 81 81 78 79 88 89 86 91 94 94 90 90 93 91 89 91 94 97 93 91 83 73 78 73 77 82 87 91 88 81 81 81 79 81 84 91 94 92 94 94
90 94 87 88 86 81 81 82 83 87 94 92 93 89 88 90 83 84 87 90 94 91 83 79 79 74 82 82 73 76 80 78 83 82 86 85 87 87 87 87 87 85 96 96
72 76 73 75 79 83 85 88 93 93 92 92 91 93 95 92 89 90 95 87 88 90 77 74 84 78 71 67 73 79 82 88 90 89 85 87 88 91 94 92 92 87 85 93
70 73 73 72 76 81 89 97 93 92 92 93 93 97 96 97 90 90 86 92 92 83 75 83 78 68 64 74 87 90 89 90 91 86 86 88 91 88 89 91 92 90 96 98
78 78 82 86 87 90 91 89 91 88 84 86 92 92 88 92 93 94 92 93 77 75 80 76 68 65 66 76 90 83 91 94 88 90 92 92 92 92 92 91 92 93 96 97
84 87 92 94 94 91 87 87 87 83 73 90 90 91 93 92 94 94 90 86 76 81 80 81 77 74 68 85 82 91 95 94 93 95 94 94 93 92 91 91 94 94 95 95
86 90 92 86 83 85 83 81 86 89 88 91 91 92 92 86 95 94 96 86 77 95 90 88 83 92 83 98 88 96 94 92 94 94 94 94 94 93 93 92 93 93 94 95
88 85 84 85 82 78 76 78 90 89 90 91 91 92 93 91 91 95 96 82 88 96 94 99 99 99 98 99 100 100 100 97 97 97 95 95 95 94 94 94 93 93 93 93
97 85 81 76 83 80 74 70 70 78 90 89 92 94 91 97 98 95 94 100 100 100 100 99 100 100 100 100 100 100 100 100 99 100 98 99 96 95 94 93 93 91 91 91
82 79 74 78 68 72 74 72 73 78 82 73 76 77 91 89 95 98 98 98 100 99 98 100 100 100 100 100 100 100 100 100 100 100 100 99 96 95 95 94 93 93 93 92
78 78 75 71 73 75 81 80 89 93 92 98 95 98 99 98 95 96 98 98 98 99 99 100 100 100 100 100 100 100 100 98 100 100 100 100 98 96 97 96 94 93 93 92
73 76 77 82 78 83 84 83 93 99 98 97 96 98 97 98 98 98 100 100 100 100 100 100 100 100 100 100 99 100 100 100 100 100 100 100 99 98 98 96 96 94 93 93

GFSNGP_sfc_rhum_039.txt.gz
RH
46 38 42 40 40 44 44 46 54 45 51 38 34 31 31 30 36 56 69 64 66 68 74 79 87 88 85 90 86 74 70 70 75 74 64 68 71 72 72 70 67 62 62 64
58 49 44 47 40 42 43 44 44 45 43 39 38 42 42 41 43 45 45 44 51 61 61 63 72 81 85 87 84 76 75 79 74 71 70 70 70 72 72 66 63 68 77 74
58 59 53 64 50 43 40 41 40 45 38 38 39 38 46 46 43 44 45 48 51 53 66 69 78 84 89 84 76 75 81 79 74 70 70 68 62 64 66 72 82 90 83 71
80 70 73 45 43 38 44 44 38 40 39 45 49 54 50 49 48 47 51 60 69 75 81 91 90 85 79 75 77 77 78 74 71 67 67 65 65 72 82 94 94 82 77 73
76 78 59 46 39 40 39 45 44 46 51 55 58 59 59 53 60 64 67 68 69 69 75 83 84 80 72 67 65 67 69 68 68 71 74 77 80 92 94 86 82 77 72 75
89 76 76 56 44 36 40 61 44 49 51 56 56 66 70 64 62 70 72 72 72 71 69 69 69 66 71 74 74 74 70 71 73 80 91 94 94 86 85 82 81 75 75 80
97 84 71 49 41 36 45 50 53 53 54 58 58 62 69 68 75 75 75 74 74 74 74 71 69 70 76 74 78 78 84 89 91 90 90 88 84 83 80 80 82 87 87 87
93 82 68 51 45 40 49 64 58 58 62 75 82 68 69 74 79 76 76 74 73 76 78 75 73 73 82 85 79 79 83 86 85 78 70 68 83 86 84 86 86 86 92 90
72 72 57 64 47 59 61 60 67 68 75 73 68 68 75 83 82 80 79 78 73 76 75 72 69 69 78 82 79 78 75 78 80 81 82 83 89 90 89 88 93 91 93 94
69 74 80 80 79 76 74 76 75 77 74 62 72 78 84 83 86 86 86 81 74 67 67 73 71 72 74 74 75 80 84 85 86 89 88 84 88 89 93 95 96 91 92 92
91 88 79 78 78 74 73 73 75 74 73 77 80 82 84 89 86 84 82 75 68 69 71 71 70 73 76 80 80 80 81 84 86 86 85 86 88 89 89 90 90 88 88 88
84 77 72 82 80 74 74 78 77 79 83 79 80 85 82 86 84 80 82 73 73 74 75 78 81 86 88 87 86 85 84 84 91 93 92 88 87 83 81 87 86 86 85 87
62 68 82 82 79 75 79 80 77 78 78 84 83 82 83 90 92 85 78 77 79 87 90 94 94 91 93 95 94 95 96 95 95 95 95 95 94 94 95 84 81 82 83 87
76 77 88 84 92 82 83 83 81 83 84 87 90 91 92 94 92 91 92 91 95 96 89 89 89 84 85 87 83 92 91 93 93 89 87 85 84 85 85 83 85 82 79 85
83 79 80 84 83 85 82 83 90 94 94 94 93 92 92 95 97 97 96 96 87 81 83 78 76 78 81 83 81 85 81 82 83 91 93 90 90 89 88 87 87 84 79 75
81 81 82 87 86 83 84 86 90 94 92 95 95 97 96 92 89 94 88 85 85 88 79 92 88 88 87 70 66 70 74 85 89 91 92 88 78 78 77 83 88 89 89 86
94 97 92 90 88 85 86 80 82 90 94 92 96 93 79 83 88 92 94 85 87 88 85 92 83 66 68 65 75 85 91 88 89 85 89 86 87 90 91 93 90 89 88 84
82 83 81 79 82 88 88 89 89 88 90 92 88 91 92 93 93 89 90 88 91 90 85 75 69 60 62 68 73 81 86 89 85 85 86 92 92 87 90 92 91 91 90 88
76 78 78 78 80 84 87 90 90 90 93 90 91 95 95 96 88 86 86 90 89 84 82 71 74 65 61 75 78 83 93 94 89 85 91 93 93 91 93 93 92 91 91 92
78 79 80 83 85 90 94 89 90 87 85 89 88 88 89 96 95 96 92 87 74 81 76 72 66 64 62 72 89 82 95 97 91 92 94 95 95 95 94 92 91 91 92 92
90 89 88 86 88 90 92 86 81 74 79 90 88 92 94 94 95 95 92 88 72 83 76 80 77 75 66 84 81 97 99 100 100 98 99 98 97 95 94 94 93 93 93 92
88 92 93 86 82 84 82 74 74 87 88 91 93 94 94 91 95 93 96 87 78 97 92 91 85 92 85 100 89 100 97 97 99 100 99 97 97 97 96 95 96 95 94 93
93 91 86 88 83 81 83 79 88 86 88 92 93 93 93 89 88 95 97 85 91 97 97 99 99 100 100 100 100 100 100 100 100 100 100 100 100 99 97 97 96 95 95 94
86 90 88 76 76 74 79 77 69 76 91 91 94 96 92 98 99 96 94 99 100 100 100 100 100 100 100 100 100 100 100 100 100 100 100 100 100 100 97 98 97 95 94 93
92 79 78 77 72 72 72 76 78 76 80 72 80 88 91 90 95 98 98 99 100 99 100 100 100 100 100 100 100 100 100 100 100 100 100 100 99 99 99 98 98 98 96 94
80 76 72 72 79 79 79 81 92 91 88 92 94 100 99 97 95 94 98 99 99 99 100 100 100 100 100 100 100 100 100 99 100 100 100 100 100 99 99 97 98 97 97 96
92 91 84 85 82 81 82 86 94 96 92 95 95 98 96 98 98 96 100 100 100 100 100 100 100 100 100 100 100 100 100 100 100 100 100 100 100 100 99 98 97 97 96 95

GFSNGP_sfc_rhum_042.txt.gz
RH
47 42 43 43 44 49 48 50 54 47 52 40 39 34 33 35 56 61 79 82 78 80 86 92 92 93 93 92 93 92 89 88 86 85 78 78 73 77 76 77 72 68 76 86
67 52 49 55 46 50 49 50 49 48 45 40 43 49 49 51 51 51 53 54 59 65 69 72 82 91 93 93 93 84 84 85 81 79 74 75 76 72 73 78 84 86 90 92
58 60 54 65 52 46 46 48 45 55 44 41 45 48 54 50 49 52 59 66 72 80 91 93 92 87 92 94 89 88 88 82 77 73 72 73 69 72 79 84 92 97 94 93
80 71 66 46 49 46 49 46 43 42 42 41 46 52 53 54 55 62 71 73 74 82 90 94 92 90 87 85 88 88 85 78 73 71 70 69 75 84 93 96 96 96 92 85
75 78 57 50 44 45 44 40 43 45 55 59 61 63 68 66 71 75 77 77 79 77 77 76 75 73 74 75 76 76 78 75 70 71 76 81 89 96 98 99 95 87 81 78
86 76 76 57 48 37 38 51 45 54 63 66 62 65 74 71 75 80 80 81 80 77 76 78 79 74 75 78 80 82 80 80 82 88 93 96 96 93 87 84 83 86 81 81
96 84 75 56 43 40 47 51 52 54 62 64 57 60 78 81 81 80 80 79 75 76 80 83 79 74 82 85 92 89 87 90 91 91 91 90 88 86 83 83 87 89 89 89
90 86 76 48 48 45 50 69 59 58 61 66 80 79 83 80 79 78 82 82 80 81 82 81 84 84 91 93 88 83 84 84 81 77 74 74 84 88 88 90 90 89 93 89
73 74 60 58 49 51 56 60 61 63 75 74 77 80 82 84 82 83 84 85 80 81 84 83 82 83 89 87 78 76 79 80 83 85 86 89 90 91 93 91 96 92 91 92
67 65 70 76 78 77 78 73 76 81 73 68 78 83 87 86 86 85 85 80 76 75 79 83 79 75 77 77 76 78 83 85 88 89 88 86 87 90 94 96 95 88 90 89
77 86 85 77 80 78 81 80 77 76 74 76 81 86 89 91 88 85 81 77 74 76 77 78 79 86 88 91 86 87 86 88 90 91 92 91 91 93 92 92 93 92 90 92
68 64 64 68 81 79 81 83 80 81 86 83 81 88 86 90 86 80 83 81 78 76 82 88 90 94 93 92 94 94 92 93 97 98 98 94 92 86 82 86 84 83 84 91
56 71 85 84 82 78 83 84 82 84 83 88 84 83 83 89 91 86 82 80 87 93 94 91 82 88 91 88 90 91 96 90 86 82 80 83 84 87 93 79 70 71 72 75
78 77 87 78 87 82 82 83 83 85 85 86 88 88 89 92 89 89 92 96 88 84 85 77 81 91 83 80 84 84 83 86 90 92 95 94 98 96 94 88 87 83 73 72
84 81 79 85 85 88 85 85 92 96 95 96 90 91 89 95 95 95 90 83 76 74 76 83 89 88 75 71 66 72 78 89 94 97 98 97 93 88 84 85 92 88 83 77
86 85 85 90 92 90 90 92 94 95 91 90 92 93 93 94 93 89 83 81 80 82 86 96 81 67 67 68 71 78 78 90 88 89 92 88 89 91 88 88 89 90 90 90
95 98 94 95 95 92 88 85 86 91 92 93 93 80 83 93 89 88 83 80 91 94 85 82 71 58 61 66 72 77 86 84 88 82 88 89 91 91 92 91 91 91 91 89
82 81 81 84 88 91 94 95 97 94 94 89 82 90 93 94 92 90 87 86 94 90 75 67 62 57 59 67 64 74 88 82 84 88 87 93 93 90 94 92 91 92 91 87
82 83 82 84 83 88 94 96 95 91 89 86 88 93 94 92 84 81 78 89 93 87 78 65 73 65 58 77 73 85 94 94 89 84 89 96 95 93 95 95 94 94 92 92
86 87 91 95 96 96 97 96 89 83 83 87 91 94 96 96 93 92 89 85 79 80 71 68 65 64 63 74 89 81 96 98 92 94 99 97 100 100 100 96 95 95 95 94
95 95 97 96 95 96 94 88 86 83 79 88 88 92 94 95 95 94 92 85 72 83 73 80 73 73 69 82 82 98 99 100 100 100 100 100 100 100 100 100 97 97 96 95
92 93 96 95 89 82 75 74 82 88 89 92 94 94 93 89 93 92 95 86 76 95 87 88 84 93 86 100 88 100 98 99 100 100 100 100 100 100 100 100 98 98 96 96
96 95 94 88 85 77 76 79 89 89 91 92 93 93 92 89 91 96 96 84 86 96 94 98 99 99 100 100 100 100 100 100 100 100 100 100 100 100 100 99 97 99 97 96
96 91 87 85 81 73 73 69 66 79 92 91 94 95 89 98 100 95 93 97 99 100 99 99 100 100 100 100 100 100 100 100 100 100 100 100 100 100 100 99 98 96 97 96
95 94 94 95 89 79 70 72 77 78 81 81 89 90 89 87 96 98 98 99 100 98 100 100 100 100 100 100 100 100 100 100 100 100 100 100 100 100 99 99 98 98 97 96
94 93 93 85 79 80 82 84 92 87 83 93 94 98 98 96 93 94 97 98 99 99 100 100 100 100 100 100 100 100 100 100 100 100 100 100 100 99 99 98 97 96 96 95
93 94 92 91 90 90 92 93 95 95 91 94 94 97 95 97 96 94 100 100 100 100 100 100 100 100 100 100 100 100 100 100 100 100 100 100 100 100 99 99 97 97 96 95

GFSNGP_sfc_rhum_045.txt.gz
RH
38 32 37 37 39 45 40 43 51 40 40 31 30 29 28 31 41 51 58 59 61 63 68 75 77 77 78 80 80 77 76 76 80 75 68 66 64 70 70 74 73 68 77 80
47 43 39 43 38 42 42 40 40 37 38 30 30 30 35 42 46 46 50 56 63 65 62 64 69 73 80 79 77 73 74 71 67 64 67 75 75 77 82 82 76 74 85 91
53 49 44 64 50 42 41 41 39 46 36 35 34 36 42 44 45 52 58 60 65 72 74 73 75 77 79 76 73 71 70 66 67 69 72 73 73 76 79 87 89 95 96 94
73 67 73 40 38 36 41 40 37 37 32 33 34 42 44 42 50 58 57 63 68 70 71 70 68 71 72 69 71 70 67 64 64 68 70 71 81 87 92 95 95 95 92 87
79 62 49 37 38 41 42 30 34 35 35 38 48 50 56 60 59 61 65 67 68 65 65 64 64 64 65 65 64 64 64 62 61 64 72 80 87 93 95 94 89 80 76 70
74 72 70 51 36 35 30 45 34 37 47 50 51 54 50 62 64 67 66 64 65 65 63 63 63 62 65 66 67 70 69 67 65 71 81 84 90 92 90 73 68 62 62 65
78 82 62 46 37 37 49 45 42 42 49 53 48 49 61 67 69 65 63 65 65 64 65 64 64 65 69 69 72 69 69 73 80 87 90 86 81 71 64 63 67 72 74 68
78 90 68 45 38 45 47 45 48 51 54 59 67 73 70 68 70 68 66 65 64 68 70 69 64 65 70 77 72 69 70 71 68 66 62 61 66 65 64 66 71 71 96 76
60 63 54 47 44 42 44 44 52 53 55 63 73 71 70 71 70 68 64 65 63 66 71 69 66 64 68 65 59 61 62 64 65 64 62 62 62 64 62 63 70 75 74 79
65 55 53 55 54 58 51 50 50 50 55 60 67 71 71 70 70 67 63 64 63 66 68 71 67 68 70 68 63 62 67 70 69 68 67 65 62 61 63 70 74 71 73 74
65 59 70 62 64 58 63 68 65 61 60 63 69 70 69 71 68 64 64 64 63 67 72 78 77 80 78 72 67 68 69 67 65 62 58 51 47 53 56 56 72 72 69 70
68 52 56 46 54 68 71 69 65 67 71 67 66 71 69 70 66 65 69 67 68 73 76 74 72 69 68 64 60 60 57 52 62 58 58 52 50 49 62 70 69 67 67 76
53 66 74 78 72 67 71 72 71 69 70 76 73 71 71 73 72 77 71 73 74 76 70 70 65 61 60 60 55 56 54 57 58 64 60 62 62 62 66 60 62 66 68 70
73 70 72 72 72 74 74 77 77 75 74 74 73 71 74 77 76 78 81 77 71 63 67 68 59 56 52 48 52 58 60 78 62 64 68 68 66 68 67 72 77 72 65 67
78 75 74 78 77 80 78 77 82 85 84 83 77 77 76 82 88 90 78 65 63 66 68 60 53 54 53 56 53 55 57 60 69 73 72 74 71 72 70 70 72 70 66 64
84 79 77 80 83 83 81 82 89 89 85 82 80 79 80 85 86 79 67 65 69 72 62 83 63 55 57 54 55 52 58 75 68 66 69 69 69 71 69 72 71 74 73 75
94 96 94 92 88 87 86 83 85 85 85 87 90 90 93 94 89 81 73 77 86 83 71 69 59 50 56 53 54 56 62 61 76 65 69 69 72 73 73 76 77 76 78 80
78 82 81 84 87 90 92 91 92 91 92 93 96 97 97 94 83 80 85 83 86 81 63 58 52 52 57 52 55 62 69 66 67 72 70 76 74 72 78 77 74 76 78 74
86 89 88 85 84 88 92 94 94 95 97 97 97 97 94 93 79 77 80 90 91 77 66 59 67 56 58 66 60 69 73 76 71 68 73 77 79 74 79 81 79 81 79 79
90 88 87 90 90 92 97 97 97 95 95 94 94 94 93 94 91 89 83 79 71 70 61 60 57 58 60 67 69 62 72 78 72 77 83 79 84 86 84 79 80 82 86 85
96 95 97 97 97 98 97 97 96 92 88 89 91 94 93 90 87 87 81 74 75 72 66 70 64 62 59 64 61 78 80 81 83 84 86 88 87 83 84 86 86 86 87 86
97 96 97 96 95 94 91 81 80 90 91 95 95 94 94 88 92 90 90 74 72 85 74 73 70 83 73 80 71 85 77 76 79 84 86 87 87 88 87 87 88 88 88 88
96 95 94 94 90 80 79 81 91 90 92 93 93 90 82 76 74 80 83 73 74 88 77 84 90 92 94 90 91 91 88 84 84 87 89 91 89 89 87 86 88 89 89 88
92 91 89 70 70 70 77 77 74 81 92 90 94 90 82 89 91 82 83 90 93 91 90 92 95 93 94 92 93 93 94 90 88 91 88 98 90 89 86 87 87 86 88 89
94 94 91 88 88 91 87 81 78 76 80 80 84 81 80 79 87 89 88 89 90 86 90 98 90 91 88 91 93 93 93 93 92 93 92 93 91 91 89 87 89 88 89 89
91 91 91 91 91 90 90 80 79 76 78 88 90 93 93 91 88 85 86 88 87 89 89 95 94 92 90 87 89 91 92 90 92 92 96 94 92 90 90 89 90 90 90 90
91 92 90 90 90 90 91 91 91 92 92 94 93 93 91 93 93 88 87 88 90 91 93 95 95 95 93 93 92 92 93 92 96 93 94 95 94 93 92 92 91 91 91 91

GFSNGP_sfc_rhum_048.txt.gz
RH
20 17 16 18 17 22 25 26 31 27 23 20 18 17 16 19 24 27 28 37 41 42 45 49 55 58 59 66 67 66 69 70 77 76 73 69 66 63 64 65 66 68 78 87
31 22 21 22 18 17 21 19 22 23 22 17 17 18 21 22 27 32 38 43 44 44 46 48 51 52 61 61 62 60 61 62 61 59 57 62 64 66 66 71 69 74 70 75
36 30 30 54 34 23 22 25 26 28 22 17 20 22 22 26 30 36 42 44 45 45 47 49 54 56 58 58 57 57 58 57 57 57 59 62 57 58 63 70 82 84 87 88
48 69 83 24 24 21 23 22 20 21 19 18 19 20 26 27 34 38 40 45 47 47 49 50 52 54 55 52 54 55 54 54 54 54 56 57 60 65 77 82 86 88 90 85
79 50 30 30 30 29 31 24 18 20 18 16 25 32 40 35 34 38 43 45 46 46 48 49 49 49 50 50 50 50 51 51 51 53 57 58 67 78 81 88 88 77 63 59
62 58 81 29 21 22 23 36 17 18 22 22 31 42 27 43 44 48 45 46 48 48 47 49 49 47 49 50 52 54 53 51 52 55 60 66 80 88 85 70 52 46 47 50
62 71 41 27 25 24 39 36 21 20 23 30 36 27 37 44 47 43 45 48 48 46 49 50 48 49 51 52 55 52 53 57 62 67 71 74 69 54 48 47 50 59 60 56
61 88 76 30 28 31 27 34 26 30 28 36 36 47 47 47 47 47 48 49 47 52 53 50 46 48 51 55 54 54 56 59 58 54 45 42 46 45 43 45 52 56 83 63
46 45 33 33 26 25 28 25 32 30 30 34 50 48 47 49 49 48 46 46 46 50 53 51 47 47 53 54 51 52 49 47 46 44 43 43 45 49 46 49 56 59 56 61
54 30 33 35 27 30 28 28 27 28 32 42 46 48 49 50 50 48 44 45 46 52 54 56 51 47 47 45 41 43 48 50 49 50 47 45 39 36 35 45 50 47 50 54
45 36 44 39 35 29 34 39 38 31 36 40 44 48 48 50 50 46 46 49 48 53 56 56 52 52 47 44 44 44 48 46 46 44 34 29 28 35 43 50 62 56 58 59
53 34 44 29 29 34 39 42 39 38 42 40 43 47 47 50 48 48 51 50 52 54 54 53 53 52 48 44 42 43 40 36 48 44 43 33 30 32 71 67 63 64 67 74
38 48 51 54 48 40 41 42 42 42 41 46 43 45 47 50 50 58 52 53 55 55 54 53 52 47 41 41 39 38 36 40 43 47 42 42 43 44 47 54 58 60 60 63
56 58 52 54 51 58 53 52 57 45 46 48 48 48 52 54 59 56 57 54 52 53 52 46 40 39 37 36 40 45 47 60 43 45 47 50 50 53 53 59 66 62 52 56
58 59 59 58 58 61 62 57 59 58 58 58 55 58 60 64 63 63 59 53 54 54 47 38 36 37 37 42 36 39 40 43 54 60 62 60 60 60 57 58 60 58 54 52
64 60 60 62 61 67 65 64 64 70 68 66 66 66 64 67 66 59 61 65 71 60 45 67 50 42 44 37 34 38 47 64 59 53 56 56 56 59 56 60 60 62 62 64
71 74 72 71 68 70 70 68 72 72 73 71 77 78 73 72 79 87 91 90 91 90 77 62 49 41 44 37 35 37 40 47 65 50 55 56 60 62 61 64 66 66 68 72
59 60 61 63 70 75 82 81 81 85 91 92 92 93 96 96 94 92 91 87 89 82 58 48 46 45 40 40 40 47 52 52 55 61 58 67 64 61 66 67 64 66 69 64
67 67 70 69 72 79 86 91 93 94 97 97 97 97 97 96 88 88 86 91 90 78 61 52 60 50 47 59 48 55 60 65 59 56 63 66 72 66 71 74 72 74 71 71
86 85 88 92 90 93 96 96 96 96 97 96 97 96 94 95 94 93 88 81 65 59 51 51 46 48 50 54 55 51 64 70 61 69 77 72 78 81 78 71 72 75 80 79
98 97 97 96 97 97 97 97 96 95 96 97 95 95 95 94 94 90 82 74 67 59 56 60 52 49 46 49 45 70 74 77 78 75 78 81 82 78 78 79 80 81 81 81
97 96 98 98 95 95 95 94 93 96 95 96 95 96 95 89 88 86 78 67 65 70 61 60 58 72 60 64 59 76 70 72 73 76 77 79 80 82 81 81 81 81 81 82
95 94 94 94 94 91 91 90 96 94 94 95 95 89 76 67 63 69 73 65 65 74 64 71 82 82 74 79 79 78 78 77 78 78 80 82 82 82 81 81 81 81 80 80
92 91 89 77 70 68 77 78 80 85 90 85 86 81 72 81 83 70 70 77 81 79 80 83 86 77 81 81 80 80 79 79 80 81 78 83 82 80 80 81 80 79 80 79
92 92 91 90 84 85 84 84 78 71 70 69 72 70 72 73 80 80 85 87 85 77 81 90 79 73 81 80 80 80 79 79 80 81 80 81 80 81 81 80 81 81 82 82
88 85 86 87 86 82 84 83 84 85 82 86 86 91 90 87 85 84 86 86 83 77 78 82 82 82 81 78 79 78 79 75 78 78 80 80 79 79 80 79 81 81 82 83
87 87 81 80 81 83 84 85 87 88 88 91 89 89 86 88 89 84 87 86 83 80 80 80 80 80 79 80 78 77 77 78 78 79 81 80 79 81 81 82 83 83 83 84

GFSNGP_sfc_rhum_051.txt.gz
RH
20 16 16 17 18 18 19 22 31 25 19 17 15 14 14 13 14 14 15 18 23 26 31 37 44 47 50 64 66 65 71 75 82 79 75 74 76 75 75 74 72 74 78 82
26 18 16 18 15 14 14 16 17 17 17 13 12 12 14 16 16 17 18 20 24 29 34 42 47 50 58 58 58 59 60 62 61 59 58 61 63 65 63 64 62 65 67 71
40 22 22 39 22 16 15 14 16 22 17 14 14 13 14 15 16 19 24 29 34 36 40 43 48 52 54 53 52 53 54 54 54 55 57 58 53 53 56 60 65 72 74 75
54 66 67 26 16 16 18 16 14 15 14 14 12 12 14 15 18 25 31 36 38 39 41 42 42 46 48 45 48 50 50 51 51 52 52 52 55 60 65 68 68 72 78 83
68 53 29 20 20 21 21 19 13 14 14 13 12 18 23 21 22 30 33 34 35 35 39 40 41 41 42 43 44 46 47 48 48 50 54 55 59 65 69 73 81 68 65 62
59 58 64 32 19 16 16 33 15 14 16 16 16 35 21 27 29 32 33 34 36 38 38 40 40 39 41 42 43 46 47 46 47 50 55 67 75 80 79 65 51 43 43 44
67 64 38 20 16 16 39 37 16 15 15 18 20 22 25 30 35 34 34 36 38 38 40 41 40 41 43 46 48 46 47 51 57 61 65 68 67 56 47 44 44 55 54 52
67 72 75 27 22 30 27 24 20 20 19 23 22 34 36 36 36 35 37 39 37 42 44 43 40 42 44 47 46 48 51 54 55 54 46 43 44 41 37 40 49 54 62 59
45 43 33 32 28 22 19 20 24 23 20 22 33 36 36 37 37 37 37 36 38 41 45 44 40 42 46 49 48 52 51 48 45 39 35 34 37 42 38 42 50 53 49 54
45 34 28 29 27 22 22 23 21 21 21 25 36 36 37 37 38 38 35 37 38 44 46 48 44 43 47 46 43 43 43 42 40 39 39 36 31 26 29 44 47 44 47 52
38 29 25 24 30 32 24 24 24 24 23 26 34 36 37 38 39 36 36 38 42 46 49 48 44 43 39 37 37 37 39 38 39 36 30 26 27 32 43 58 61 54 57 56
51 25 40 36 28 31 27 27 31 28 27 30 32 36 36 39 38 36 39 43 44 47 48 46 44 42 39 36 34 37 37 36 46 44 39 27 26 42 68 64 66 68 65 71
32 28 40 42 40 38 32 29 29 31 27 32 32 34 37 40 40 50 43 44 47 49 48 46 43 40 36 37 37 37 38 41 44 45 39 38 39 42 42 69 63 66 63 58
28 44 46 41 38 44 38 32 43 32 31 33 34 36 40 42 46 46 47 48 47 47 46 43 40 41 37 34 38 43 42 66 40 41 42 45 45 49 48 55 63 60 61 52
44 49 49 49 46 46 44 46 43 40 40 43 41 42 45 48 50 50 51 48 46 44 40 35 35 35 34 41 36 38 38 42 52 59 59 58 56 56 53 54 56 56 51 54
51 51 50 54 48 50 51 51 51 52 54 50 50 52 50 51 56 56 52 53 53 49 54 70 60 50 42 36 38 43 46 59 57 51 54 53 52 55 51 56 57 58 59 59
63 62 58 58 54 55 54 53 55 57 58 59 68 63 65 67 75 84 87 84 91 92 88 85 77 62 45 37 36 38 42 49 63 48 51 52 56 58 57 60 63 62 64 70
60 57 54 55 55 60 64 68 69 71 80 86 85 88 90 90 91 94 95 95 95 94 86 79 67 44 42 40 40 46 49 50 53 58 54 64 62 58 62 63 62 63 65 61
70 68 68 62 63 69 77 86 92 95 95 92 93 96 96 96 96 94 94 95 94 90 84 69 65 53 52 59 46 52 57 61 55 52 61 64 70 63 67 71 70 70 68 68
91 90 90 93 92 93 96 96 95 97 97 96 96 96 96 96 96 96 95 94 88 79 67 58 48 49 47 53 54 51 62 70 59 64 72 71 75 78 76 69 69 72 76 76
98 98 98 97 98 98 98 98 97 96 97 96 95 96 96 96 96 95 93 88 78 65 60 56 49 47 45 46 42 68 72 74 73 72 74 77 78 75 76 77 77 77 78 77
99 98 97 97 96 97 97 97 95 96 96 96 96 96 95 93 94 94 89 78 66 66 57 57 57 70 58 70 55 72 67 68 71 74 75 77 78 79 79 78 78 78 77 77
95 94 94 94 94 93 93 93 96 96 96 96 95 94 91 86 79 82 85 65 64 67 62 75 79 77 66 78 76 75 74 73 75 76 78 81 82 82 80 78 78 78 78 77
91 90 91 90 89 85 88 90 88 89 95 92 92 88 80 86 83 69 67 75 75 76 88 86 83 72 80 78 77 77 77 78 80 83 81 78 82 83 79 78 77 76 76 76
92 92 91 89 85 88 86 87 84 85 85 83 84 79 77 80 89 86 86 86 83 82 87 82 75 71 79 78 79 79 79 81 85 79 78 81 81 80 79 77 76 77 77 78
86 83 83 85 84 79 81 78 83 85 80 85 84 88 87 83 82 81 84 81 77 74 79 82 80 77 78 80 79 78 79 75 78 82 82 79 80 78 77 74 76 76 78 78
81 78 72 74 74 76 78 79 83 85 85 90 88 87 85 87 84 78 82 84 80 76 78 78 78 80 74 81 78 80 82 81 82 79 77 79 78 78 77 77 78 78 79 80